Regional Weather Roundup
Issued by NWS

Home | Current Version | Previous Version | Graphics & Text | Print | Product List | Glossary On
Versions: 1 2 3 4 5 6 7 8 9 10 11 12 13 14 15 16 17 18 19 20 21 22 23 24 25 26 27 28 29 30 31 32 33 34 35 36 37 38 39 40 41 42 43 44 45 46 47 48 49 50
000
ASUS43 KIND 272009
RWRIN

WEATHER ROUNDUP FOR INDIANA
NATIONAL WEATHER SERVICE INDIANAPOLIS IN
400 PM EDT SUN JUL 27 2014

NOTE: "FAIR" INDICATES FEW OR NO CLOUDS BELOW 12,000 FEET WITH NO
SIGNIFICANT WEATHER AND/OR OBSTRUCTIONS TO VISIBILITY.

* - STATION DOES NOT REPORT WEATHER SUCH AS PRECIPITATION OR FOG.

+ - STATION NOT QUALITY CONTROLLED BY THE NATIONAL WEATHER SERVICE.
    USE DATA WITH CAUTION...ESPECIALLY DEWPOINT AND RELATIVE
    HUMIDITY OBSERVATIONS.

INZ001>003-010>013-019-020-272100-
NORTHWEST INDIANA

CITY           SKY/WX    TMP DP  RH WIND       PRES   REMARKS
GARY /AIRPORT/ PTSUNNY   86  55  35 W17G41    29.70S
KNOX *+        MOSUNNY   85  60  43 W21G30    29.67F
LA PORTE +     MOSUNNY   79  66  64 NW8       29.69F
MICHIGAN CITY+ MOSUNNY   79  61  53 W10G16    29.69F
MONTICELLO +   LGT RAIN  71  67  88 W5G37     29.71S
RENSSELAER +   MOSUNNY   82  66  57 W20G26    29.72F
VALPARAISO     PTSUNNY   85  58  39 W18G28    29.69F

$$

LMZ046-743>745-272100-
SOUTHERN LAKE MICHIGAN

STATION/POSITION TIME  TEMP WIND        PRES
                       AIR  DIR/SP/G
                 (UTC) (F)  (DEG/KT/KT) (MB)
MICHIGAN CITY    2000   75  260/ 11/ 15   N/A

$$

INZ004-005-014>016-021>024-272100-
NORTH CENTRAL INDIANA

CITY           SKY/WX    TMP DP  RH WIND       PRES   REMARKS
GOSHEN         TSTM      69  64  84 S10       29.69F
LOGANSPORT +   PTSUNNY   81  64  57 SW15      29.70F
PERU/GRISSOM   PTSUNNY   83  73  72 W14       29.68F
ROCHESTER +    RAIN      84  68  58 W17       29.68F
SOUTH BEND     PTSUNNY   77  67  71 SW6       29.69S
WARSAW +       PTSUNNY   73  64  73 N8        29.67F

$$

INZ006>009-017-018-025>027-272100-
NORTHEAST INDIANA

CITY           SKY/WX    TMP DP  RH WIND       PRES   REMARKS
ANGOLA *+      MOSUNNY   81  68  65 W3        29.66F
AUBURN +       MOSUNNY   79  66  65 W5        29.67F
FORT WAYNE     MOSUNNY   82  71  69 W13       29.67F
HUNTINGTON +   MOSUNNY   82  70  66 W14G20    29.67F

$$

INZ028-029-035-036-043>045-051>053-272100-
WEST CENTRAL INDIANA

CITY           SKY/WX    TMP DP  RH WIND       PRES   REMARKS
GREENCASTLE +  MOSUNNY   82  70  65 W9G18     29.78F
LAFAYETTE      CLOUDY    77  68  73 NW12G30   29.73S THUNDER
TERRE HAUTE    MOSUNNY   86  70  58 W15G21    29.78F

$$

INZ030>032-037>040-046>048-054>057-064-065-272100-
CENTRAL INDIANA

CITY           SKY/WX    TMP DP  RH WIND       PRES   REMARKS
CP ATTERBURY + MOSUNNY   86  72  62 W10G21    29.75F
COLUMBUS       PTSUNNY   81  75  83 W6        29.75F
INDIANAPOLIS   PTSUNNY   84  69  60 W17G25    29.74F
-EAGLE CREEK   MOSUNNY   82  68  62 W13G22    29.74F
KOKOMO *+      MOSUNNY   84  72  65 W15G21    29.70F
MARION +       MOSUNNY   82  69  65 W13       29.71F
MT COMFORT *+  MOSUNNY   82  72  69 W15G22    29.74F
SHELBYVILLE    CLOUDY    83  74  74 MISG      29.73F
ZIONSVILLE +   SUNNY     81  68  63 W14       29.75F

$$

INZ033-034-041-042-049-050-058-059-272100-
EAST CENTRAL INDIANA

CITY           SKY/WX    TMP DP  RH WIND       PRES   REMARKS
MUNCIE         MOSUNNY   82  70  66 W15G23    29.70F

$$

INZ060-061-067>069-081>083-085>088-272100-
SOUTHWEST INDIANA

CITY           SKY/WX    TMP DP  RH WIND       PRES   REMARKS
EVANSVILLE     MOSUNNY   89  73  59 W14G22    29.83S HX  97
WASHINGTON +   SUNNY     85  72  63 NW15G23   29.80S

$$

INZ062-063-066-070>080-084-089>092-272100-
SOUTH CENTRAL AND SOUTHEAST INDIANA

CITY           SKY/WX    TMP DP  RH WIND       PRES   REMARKS
BLOOMINGTON    MOSUNNY   84  72  67 W9G18     29.78F
SEYMOUR +      MOSUNNY   84  63  48 W10G20    29.74

$$



USA.gov is the U.S. government's official web portal to all federal, state and local government web resources and services.